contact:dominique.lefevre@mio.osupytheas.fr, maurice.libes@osupytheas.fr, didier.mallarino@osupytheas.fr
Project:EMSO http://www.emso-fr.org/EMSO-France
Depth: 2436.0 m
Title:EMSO Ligure Ouest : Data MII capteur CSTAR
DateTime,Latitude,Longitude,Instrument_Serial,Reference_Counts,Signal_Counts,Corrected_Signal_raw_counts,Calculated_Beam_c_inverse_meters,Internal_thermistor_counts
DateTime,Latitude,Longitude,Instrument_Serial,Reference_Counts,Signal_Counts,Corrected_Signal_raw_counts,Calculated_Beam_c_inverse_meters,Internal_thermistor_counts
2022-07-27T00:01:04,42.805,6.029,CST-1368DR,4641,5002,11479,01.231,551
2022-07-27T00:04:06,42.805,6.029,CST-1368DR,4641,4999,11472,01.234,551
2022-07-27T00:07:07,42.805,6.029,CST-1368DR,4641,5005,11487,01.228,551
2022-07-27T00:10:09,42.805,6.029,CST-1368DR,4641,5007,11492,01.227,551
2022-07-27T00:13:10,42.805,6.029,CST-1368DR,4641,5005,11486,01.229,551
2022-07-27T00:16:12,42.805,6.029,CST-1368DR,4641,5000,11474,01.233,551
2022-07-27T00:19:14,42.805,6.029,CST-1368DR,4641,5001,11477,01.232,551
2022-07-27T00:22:15,42.805,6.029,CST-1368DR,4641,4998,11471,01.234,551
2022-07-27T00:25:17,42.805,6.029,CST-1368DR,4641,5000,11475,01.233,551
2022-07-27T00:28:18,42.805,6.029,CST-1368DR,4641,4996,11466,01.236,551
2022-07-27T00:31:20,42.805,6.029,CST-1368DR,4641,5002,11479,01.231,551
2022-07-27T00:34:21,42.805,6.029,CST-1368DR,4641,5000,11475,01.233,551
2022-07-27T00:37:23,42.805,6.029,CST-1368DR,4641,5002,11480,01.231,551
2022-07-27T00:40:25,42.805,6.029,CST-1368DR,4641,5001,11477,01.232,551
2022-07-27T00:43:26,42.805,6.029,CST-1368DR,4641,5009,11496,01.225,551
2022-07-27T00:46:28,42.805,6.029,CST-1368DR,4641,5007,11490,01.227,551
2022-07-27T00:49:29,42.805,6.029,CST-1368DR,4640,5002,11482,01.230,551
2022-07-27T00:52:31,42.805,6.029,CST-1368DR,4641,5005,11487,01.228,551
2022-07-27T00:55:32,42.805,6.029,CST-1368DR,4640,5011,11503,01.223,551
2022-07-27T00:58:34,42.805,6.029,CST-1368DR,4640,5002,11483,01.230,551
2022-07-27T01:01:36,42.805,6.029,CST-1368DR,4640,5002,11482,01.230,551
2022-07-27T01:04:37,42.805,6.029,CST-1368DR,4640,5002,11483,01.230,551
2022-07-27T01:07:39,42.805,6.029,CST-1368DR,4640,5002,11481,01.230,551
2022-07-27T01:10:40,42.805,6.029,CST-1368DR,4640,4998,11474,01.233,551
2022-07-27T01:13:42,42.805,6.029,CST-1368DR,4640,4996,11468,01.235,551
2022-07-27T01:16:44,42.805,6.029,CST-1368DR,4640,4999,11476,01.232,551
2022-07-27T01:19:45,42.805,6.029,CST-1368DR,4640,4996,11468,01.235,551
2022-07-27T01:22:47,42.805,6.029,CST-1368DR,4640,4990,11454,01.240,551
2022-07-27T01:25:48,42.805,6.029,CST-1368DR,4640,4993,11461,01.237,551
2022-07-27T01:28:50,42.805,6.029,CST-1368DR,4640,4967,11401,01.258,551
2022-07-27T01:31:51,42.805,6.029,CST-1368DR,4640,4980,11431,01.248,551
2022-07-27T01:34:53,42.805,6.029,CST-1368DR,4640,4991,11456,01.239,551
2022-07-27T01:37:55,42.805,6.029,CST-1368DR,4640,4989,11453,01.240,551
2022-07-27T01:40:56,42.805,6.029,CST-1368DR,4640,4988,11451,01.241,551
2022-07-27T01:43:58,42.805,6.029,CST-1368DR,4640,4992,11459,01.238,551
2022-07-27T01:46:59,42.805,6.029,CST-1368DR,4640,4990,11455,01.239,551
2022-07-27T01:50:01,42.805,6.029,CST-1368DR,4640,4992,11458,01.238,551
2022-07-27T01:53:03,42.805,6.029,CST-1368DR,4640,4992,11458,01.238,551
2022-07-27T01:56:04,42.805,6.029,CST-1368DR,4640,4989,11452,01.241,551
2022-07-27T01:59:06,42.805,6.029,CST-1368DR,4641,4994,11461,01.237,551
2022-07-27T02:02:07,42.805,6.029,CST-1368DR,4641,4989,11450,01.241,551
2022-07-27T02:05:09,42.805,6.029,CST-1368DR,4641,4992,11458,01.238,551
2022-07-27T02:08:10,42.805,6.029,CST-1368DR,4641,4989,11450,01.241,551
2022-07-27T02:11:12,42.805,6.029,CST-1368DR,4641,5000,11475,01.233,551
2022-07-27T02:14:14,42.805,6.029,CST-1368DR,4640,4992,11459,01.238,551
2022-07-27T02:17:15,42.805,6.029,CST-1368DR,4640,4988,11450,01.241,551
2022-07-27T02:20:17,42.805,6.029,CST-1368DR,4640,4987,11448,01.242,551
2022-07-27T02:23:18,42.805,6.029,CST-1368DR,4640,4993,11460,01.238,551
2022-07-27T02:26:20,42.805,6.029,CST-1368DR,4640,4994,11464,01.236,551
2022-07-27T02:29:21,42.805,6.029,CST-1368DR,4640,4994,11463,01.237,551
2022-07-27T02:32:23,42.805,6.029,CST-1368DR,4640,4996,11467,01.235,551
2022-07-27T02:35:25,42.805,6.029,CST-1368DR,4640,4996,11468,01.235,551
2022-07-27T02:38:26,42.805,6.029,CST-1368DR,4640,4994,11463,01.237,551
2022-07-27T02:41:28,42.805,6.029,CST-1368DR,4640,4995,11465,01.236,551
2022-07-27T02:44:29,42.805,6.029,CST-1368DR,4640,4996,11468,01.235,551
2022-07-27T02:47:31,42.805,6.029,CST-1368DR,4640,4995,11466,01.236,551
2022-07-27T02:50:33,42.805,6.029,CST-1368DR,4640,4991,11456,01.239,551
2022-07-27T03:00:06,42.805,6.029,CST-1368DR,4641,4996,11465,01.236,551
2022-07-27T03:03:08,42.805,6.029,CST-1368DR,4640,4993,11462,01.237,551
2022-07-27T03:06:09,42.805,6.029,CST-1368DR,4640,4994,11464,01.236,551
2022-07-27T03:09:11,42.805,6.029,CST-1368DR,4640,4995,11465,01.236,551
2022-07-27T03:12:13,42.805,6.029,CST-1368DR,4641,4998,11471,01.234,550
2022-07-27T03:15:14,42.805,6.029,CST-1368DR,4640,4995,11465,01.236,551
2022-07-27T03:18:16,42.805,6.029,CST-1368DR,4641,4995,11463,01.237,551
2022-07-27T03:21:17,42.805,6.029,CST-1368DR,4641,4997,11469,01.235,551
2022-07-27T03:24:19,42.805,6.029,CST-1368DR,4641,4994,11460,01.238,551
2022-07-27T03:27:20,42.805,6.029,CST-1368DR,4640,4978,11427,01.249,551
2022-07-27T03:30:22,42.805,6.029,CST-1368DR,4641,4990,11453,01.240,551
2022-07-27T03:33:24,42.805,6.029,CST-1368DR,4641,4994,11460,01.238,551
2022-07-27T03:36:25,42.805,6.029,CST-1368DR,4641,5006,11488,01.228,551
2022-07-27T03:39:27,42.805,6.029,CST-1368DR,4641,4996,11466,01.236,551
2022-07-27T03:42:28,42.805,6.029,CST-1368DR,4641,4997,11467,01.235,550
2022-07-27T03:45:30,42.805,6.029,CST-1368DR,4641,4991,11454,01.240,551
2022-07-27T03:48:32,42.805,6.029,CST-1368DR,4640,4986,11446,01.243,551
2022-07-27T03:51:33,42.805,6.029,CST-1368DR,4641,4987,11445,01.243,551
2022-07-27T03:54:35,42.805,6.029,CST-1368DR,4641,4987,11444,01.243,550
2022-07-27T03:57:36,42.805,6.029,CST-1368DR,4641,4998,11471,01.234,551
2022-07-27T04:00:38,42.805,6.029,CST-1368DR,4641,4998,11471,01.234,551
2022-07-27T04:03:39,42.805,6.029,CST-1368DR,4640,4988,11450,01.241,551
2022-07-27T04:06:41,42.805,6.029,CST-1368DR,4640,4989,11452,01.241,551
2022-07-27T04:09:43,42.805,6.029,CST-1368DR,4641,4986,11443,01.244,551
2022-07-27T04:12:44,42.805,6.029,CST-1368DR,4641,4983,11436,01.246,551
2022-07-27T04:15:46,42.805,6.029,CST-1368DR,4641,4998,11471,01.234,551
2022-07-27T04:18:47,42.805,6.029,CST-1368DR,4641,4996,11466,01.236,551
2022-07-27T04:21:49,42.805,6.029,CST-1368DR,4641,5006,11488,01.228,551
2022-07-27T04:24:51,42.805,6.029,CST-1368DR,4640,4997,11470,01.234,551
2022-07-27T04:27:52,42.805,6.029,CST-1368DR,4640,5000,11477,01.232,550
2022-07-27T04:30:54,42.805,6.029,CST-1368DR,4641,4997,11468,01.235,551
2022-07-27T04:33:55,42.805,6.029,CST-1368DR,4641,4997,11467,01.235,551
2022-07-27T04:36:57,42.805,6.029,CST-1368DR,4641,4994,11461,01.237,551
2022-07-27T04:39:58,42.805,6.029,CST-1368DR,4641,4992,11456,01.239,551
2022-07-27T04:43:00,42.805,6.029,CST-1368DR,4641,4992,11456,01.239,551
2022-07-27T04:46:02,42.805,6.029,CST-1368DR,4641,4993,11459,01.238,551
2022-07-27T04:49:03,42.805,6.029,CST-1368DR,4641,4992,11458,01.238,551
2022-07-27T04:52:05,42.805,6.029,CST-1368DR,4641,4996,11465,01.236,550
2022-07-27T04:55:06,42.805,6.029,CST-1368DR,4641,4993,11459,01.238,551
2022-07-27T04:58:08,42.805,6.029,CST-1368DR,4641,4995,11464,01.236,551
2022-07-27T05:01:09,42.805,6.029,CST-1368DR,4641,4994,11460,01.238,551
2022-07-27T05:04:11,42.805,6.029,CST-1368DR,4641,4993,11460,01.238,551
2022-07-27T05:07:13,42.805,6.029,CST-1368DR,4641,4992,11458,01.238,551
2022-07-27T05:10:14,42.805,6.029,CST-1368DR,4641,5003,11482,01.230,551
2022-07-27T05:13:16,42.805,6.029,CST-1368DR,4641,4988,11447,01.242,551
2022-07-27T05:16:17,42.805,6.029,CST-1368DR,4641,4995,11463,01.237,551
2022-07-27T05:19:19,42.805,6.029,CST-1368DR,4641,4994,11460,01.238,551
2022-07-27T05:22:21,42.805,6.029,CST-1368DR,4641,4996,11465,01.236,551
2022-07-27T05:25:22,42.805,6.029,CST-1368DR,4641,4995,11463,01.237,551
2022-07-27T05:28:24,42.805,6.029,CST-1368DR,4641,4995,11464,01.236,551
2022-07-27T05:31:25,42.805,6.029,CST-1368DR,4641,4995,11464,01.236,551
2022-07-27T05:34:27,42.805,6.029,CST-1368DR,4641,4995,11464,01.236,551
2022-07-27T05:37:28,42.805,6.029,CST-1368DR,4641,4995,11464,01.236,551
2022-07-27T05:40:30,42.805,6.029,CST-1368DR,4641,4993,11459,01.238,551
2022-07-27T05:43:32,42.805,6.029,CST-1368DR,4641,4996,11466,01.236,551
2022-07-27T05:46:33,42.805,6.029,CST-1368DR,4641,4992,11458,01.238,551
2022-07-27T05:49:35,42.805,6.029,CST-1368DR,4641,4995,11463,01.237,551
2022-07-27T05:52:36,42.805,6.029,CST-1368DR,4641,4996,11466,01.236,551
2022-07-27T05:55:38,42.805,6.029,CST-1368DR,4641,4993,11459,01.238,551
2022-07-27T05:58:39,42.805,6.029,CST-1368DR,4641,4996,11466,01.236,551
2022-07-27T06:01:41,42.805,6.029,CST-1368DR,4641,4992,11456,01.239,551
2022-07-27T06:04:43,42.805,6.029,CST-1368DR,4641,4994,11460,01.238,551
2022-07-27T06:07:44,42.805,6.029,CST-1368DR,4641,4994,11462,01.237,551
2022-07-27T06:10:46,42.805,6.029,CST-1368DR,4641,4996,11465,01.236,551
2022-07-27T06:13:47,42.805,6.029,CST-1368DR,4641,4995,11463,01.237,551
2022-07-27T06:16:49,42.805,6.029,CST-1368DR,4641,4995,11463,01.237,551
2022-07-27T06:19:51,42.805,6.029,CST-1368DR,4641,4994,11460,01.238,551
2022-07-27T06:22:52,42.805,6.029,CST-1368DR,4641,4993,11459,01.238,551
2022-07-27T06:25:54,42.805,6.029,CST-1368DR,4641,4989,11451,01.241,551
2022-07-27T06:28:55,42.805,6.029,CST-1368DR,4641,4994,11462,01.237,551
2022-07-27T06:31:57,42.805,6.029,CST-1368DR,4641,4999,11472,01.234,551
2022-07-27T06:34:58,42.805,6.029,CST-1368DR,4641,4997,11468,01.235,551
2022-07-27T06:38:00,42.805,6.029,CST-1368DR,4641,4995,11463,01.237,551
2022-07-27T06:41:02,42.805,6.029,CST-1368DR,4641,4998,11470,01.234,551
2022-07-27T06:44:03,42.805,6.029,CST-1368DR,4641,4997,11467,01.235,551
2022-07-27T06:47:05,42.805,6.029,CST-1368DR,4641,4997,11468,01.235,551
2022-07-27T06:50:06,42.805,6.029,CST-1368DR,4641,4995,11464,01.236,551
2022-07-27T06:53:08,42.805,6.029,CST-1368DR,4641,4993,11459,01.238,551
2022-07-27T06:56:09,42.805,6.029,CST-1368DR,4641,4993,11459,01.238,551
2022-07-27T06:59:11,42.805,6.029,CST-1368DR,4641,4997,11467,01.235,551
2022-07-27T07:02:13,42.805,6.029,CST-1368DR,4641,4996,11466,01.236,551
2022-07-27T07:05:14,42.805,6.029,CST-1368DR,4641,4995,11463,01.237,551
2022-07-27T07:08:16,42.805,6.029,CST-1368DR,4641,4991,11454,01.240,551
2022-07-27T07:11:17,42.805,6.029,CST-1368DR,4641,4993,11458,01.238,551
2022-07-27T07:14:19,42.805,6.029,CST-1368DR,4641,4995,11463,01.237,551
2022-07-27T07:17:21,42.805,6.029,CST-1368DR,4641,5013,11505,01.222,551
2022-07-27T07:20:22,42.805,6.029,CST-1368DR,4641,4991,11454,01.240,551
2022-07-27T07:23:24,42.805,6.029,CST-1368DR,4641,4992,11457,01.239,551
2022-07-27T07:26:25,42.805,6.029,CST-1368DR,4641,5002,11480,01.231,551
2022-07-27T07:29:27,42.805,6.029,CST-1368DR,4641,4996,11465,01.236,550
2022-07-27T07:32:28,42.805,6.029,CST-1368DR,4641,4997,11468,01.235,551
2022-07-27T07:35:30,42.805,6.029,CST-1368DR,4641,4995,11463,01.237,551
2022-07-27T07:38:32,42.805,6.029,CST-1368DR,4641,4997,11468,01.235,551
2022-07-27T07:41:33,42.805,6.029,CST-1368DR,4641,4993,11459,01.238,551
2022-07-27T07:44:35,42.805,6.029,CST-1368DR,4641,4996,11465,01.236,551
2022-07-27T07:47:36,42.805,6.029,CST-1368DR,4641,4997,11469,01.235,551
2022-07-27T07:50:38,42.805,6.029,CST-1368DR,4641,5000,11475,01.233,551
2022-07-27T07:53:39,42.805,6.029,CST-1368DR,4641,4996,11467,01.235,551
2022-07-27T07:56:41,42.805,6.029,CST-1368DR,4641,4996,11467,01.235,551
2022-07-27T07:59:43,42.805,6.029,CST-1368DR,4641,4999,11472,01.234,551
2022-07-27T08:02:44,42.805,6.029,CST-1368DR,4641,4999,11473,01.233,551
2022-07-27T08:05:46,42.805,6.029,CST-1368DR,4641,4998,11471,01.234,551
2022-07-27T08:08:47,42.805,6.029,CST-1368DR,4641,4998,11470,01.234,551
2022-07-27T08:11:49,42.805,6.029,CST-1368DR,4641,4999,11474,01.233,551
2022-07-27T08:14:51,42.805,6.029,CST-1368DR,4641,4999,11474,01.233,551
2022-07-27T08:17:52,42.805,6.029,CST-1368DR,4641,5001,11476,01.232,551
2022-07-27T08:25:06,42.805,6.029,CST-1368DR,4641,4999,11473,01.233,551
2022-07-27T08:28:08,42.805,6.029,CST-1368DR,4641,4997,11468,01.235,551
2022-07-27T08:31:09,42.805,6.029,CST-1368DR,4641,4999,11474,01.233,551
2022-07-27T08:34:11,42.805,6.029,CST-1368DR,4641,4998,11471,01.234,551
2022-07-27T08:37:13,42.805,6.029,CST-1368DR,4641,4998,11471,01.234,551
2022-07-27T08:40:14,42.805,6.029,CST-1368DR,4641,4997,11468,01.235,551
2022-07-27T08:43:16,42.805,6.029,CST-1368DR,4641,4996,11465,01.236,551
2022-07-27T08:46:17,42.805,6.029,CST-1368DR,4641,4998,11470,01.234,551
2022-07-27T08:49:19,42.805,6.029,CST-1368DR,4641,4998,11471,01.234,551
2022-07-27T08:52:20,42.805,6.029,CST-1368DR,4641,4996,11466,01.236,551
2022-07-27T08:55:22,42.805,6.029,CST-1368DR,4641,5000,11474,01.233,550
2022-07-27T08:58:24,42.805,6.029,CST-1368DR,4641,4998,11471,01.234,551
2022-07-27T09:01:25,42.805,6.029,CST-1368DR,4641,4998,11470,01.234,551
2022-07-27T09:04:27,42.805,6.029,CST-1368DR,4641,4997,11468,01.235,551
2022-07-27T09:07:28,42.805,6.029,CST-1368DR,4641,4997,11469,01.235,551
2022-07-27T09:10:30,42.805,6.029,CST-1368DR,4641,4997,11469,01.235,551
2022-07-27T09:13:32,42.805,6.029,CST-1368DR,4641,4997,11469,01.235,551
2022-07-27T09:16:33,42.805,6.029,CST-1368DR,4640,4997,11470,01.234,551
2022-07-27T09:19:35,42.805,6.029,CST-1368DR,4641,4995,11464,01.236,551
2022-07-27T09:22:36,42.805,6.029,CST-1368DR,4641,4998,11470,01.234,551
2022-07-27T09:25:38,42.805,6.029,CST-1368DR,4641,4997,11468,01.235,551
2022-07-27T09:28:39,42.805,6.029,CST-1368DR,4641,4996,11466,01.236,551
2022-07-27T09:31:41,42.805,6.029,CST-1368DR,4640,4992,11460,01.238,551
2022-07-27T09:34:43,42.805,6.029,CST-1368DR,4641,4995,11464,01.236,551
2022-07-27T09:37:44,42.805,6.029,CST-1368DR,4641,4996,11466,01.236,551
2022-07-27T09:40:46,42.805,6.029,CST-1368DR,4640,4995,11467,01.235,551
2022-07-27T09:43:47,42.805,6.029,CST-1368DR,4641,4993,11459,01.238,551
2022-07-27T09:46:49,42.805,6.029,CST-1368DR,4641,4992,11456,01.239,551
2022-07-27T09:49:50,42.805,6.029,CST-1368DR,4641,4993,11460,01.238,551
2022-07-27T09:52:52,42.805,6.029,CST-1368DR,4641,4992,11458,01.238,551
2022-07-27T09:55:54,42.805,6.029,CST-1368DR,4640,4995,11465,01.236,551
2022-07-27T09:58:55,42.805,6.029,CST-1368DR,4641,4993,11459,01.238,551
2022-07-27T10:01:57,42.805,6.029,CST-1368DR,4640,4995,11466,01.236,551
2022-07-27T10:04:58,42.805,6.029,CST-1368DR,4640,4992,11460,01.238,551
2022-07-27T10:08:00,42.805,6.029,CST-1368DR,4640,4979,11429,01.249,551
2022-07-27T10:11:02,42.805,6.029,CST-1368DR,4641,4994,11461,01.237,551
2022-07-27T10:14:03,42.805,6.029,CST-1368DR,4640,4993,11462,01.237,551
2022-07-27T10:17:05,42.805,6.029,CST-1368DR,4641,4994,11462,01.237,551
2022-07-27T10:20:06,42.805,6.029,CST-1368DR,4641,4994,11461,01.237,551
2022-07-27T10:23:08,42.805,6.029,CST-1368DR,4641,4996,11466,01.236,551
2022-07-27T10:26:09,42.805,6.029,CST-1368DR,4640,4995,11466,01.236,551
2022-07-27T10:29:11,42.805,6.029,CST-1368DR,4641,4995,11464,01.236,551
2022-07-27T10:32:13,42.805,6.029,CST-1368DR,4640,4991,11456,01.239,551
2022-07-27T10:35:14,42.805,6.029,CST-1368DR,4640,4995,11465,01.236,551
2022-07-27T10:38:16,42.805,6.029,CST-1368DR,4641,4996,11465,01.236,551
2022-07-27T10:41:17,42.805,6.029,CST-1368DR,4640,4995,11466,01.236,551
2022-07-27T10:44:19,42.805,6.029,CST-1368DR,4640,4993,11460,01.238,551
2022-07-27T10:47:20,42.805,6.029,CST-1368DR,4640,4988,11451,01.241,551
2022-07-27T10:50:22,42.805,6.029,CST-1368DR,4640,4995,11465,01.236,550
2022-07-27T10:53:24,42.805,6.029,CST-1368DR,4640,4992,11458,01.238,551
2022-07-27T10:56:25,42.805,6.029,CST-1368DR,4640,4993,11461,01.237,551
2022-07-27T10:59:27,42.805,6.029,CST-1368DR,4641,4995,11463,01.237,551
2022-07-27T11:02:28,42.805,6.029,CST-1368DR,4640,4991,11458,01.238,551
2022-07-27T11:05:30,42.805,6.029,CST-1368DR,4640,4993,11460,01.238,551
2022-07-27T11:08:32,42.805,6.029,CST-1368DR,4640,4993,11461,01.237,551
2022-07-27T11:11:33,42.805,6.029,CST-1368DR,4640,4992,11460,01.238,551
2022-07-27T11:14:35,42.805,6.029,CST-1368DR,4640,4994,11463,01.237,551
2022-07-27T11:17:36,42.805,6.029,CST-1368DR,4640,4993,11462,01.237,550
2022-07-27T11:20:38,42.805,6.029,CST-1368DR,4640,4992,11458,01.238,551
2022-07-27T11:23:39,42.805,6.029,CST-1368DR,4640,4994,11463,01.237,551
2022-07-27T11:26:41,42.805,6.029,CST-1368DR,4640,4994,11463,01.237,551
2022-07-27T11:29:43,42.805,6.029,CST-1368DR,4640,4994,11463,01.237,551
2022-07-27T11:32:44,42.805,6.029,CST-1368DR,4640,4993,11460,01.238,551
2022-07-27T11:35:46,42.805,6.029,CST-1368DR,4640,4992,11459,01.238,551
2022-07-27T11:38:47,42.805,6.029,CST-1368DR,4640,5006,11491,01.227,551
2022-07-27T11:41:49,42.805,6.029,CST-1368DR,4640,4990,11455,01.239,551
2022-07-27T11:44:50,42.805,6.029,CST-1368DR,4640,4992,11459,01.238,551
2022-07-27T11:47:52,42.805,6.029,CST-1368DR,4640,4990,11455,01.239,551
2022-07-27T11:50:54,42.805,6.029,CST-1368DR,4640,4990,11454,01.240,551
2022-07-27T11:53:55,42.805,6.029,CST-1368DR,4640,4990,11455,01.239,551
2022-07-27T11:56:57,42.805,6.029,CST-1368DR,4640,4992,11459,01.238,551
2022-07-27T11:59:58,42.805,6.029,CST-1368DR,4640,4993,11461,01.237,551
2022-07-27T12:03:00,42.805,6.029,CST-1368DR,4640,4992,11458,01.238,551
2022-07-27T12:06:01,42.805,6.029,CST-1368DR,4640,4992,11459,01.238,551
2022-07-27T12:09:03,42.805,6.029,CST-1368DR,4640,4995,11467,01.235,551
2022-07-27T12:12:05,42.805,6.029,CST-1368DR,4640,4992,11459,01.238,551
2022-07-27T12:15:06,42.805,6.029,CST-1368DR,4640,4992,11460,01.238,551
2022-07-27T12:18:08,42.805,6.029,CST-1368DR,4640,4993,11462,01.237,551
2022-07-27T12:21:09,42.805,6.029,CST-1368DR,4640,4991,11456,01.239,551
2022-07-27T12:24:11,42.805,6.029,CST-1368DR,4640,4993,11462,01.237,551
2022-07-27T12:27:13,42.805,6.029,CST-1368DR,4640,5006,11491,01.227,551
2022-07-27T12:30:14,42.805,6.029,CST-1368DR,4640,4997,11471,01.234,551
2022-07-27T12:33:16,42.805,6.029,CST-1368DR,4640,4998,11473,01.233,551
2022-07-27T12:36:17,42.805,6.029,CST-1368DR,4640,4999,11474,01.233,551
2022-07-27T12:39:19,42.805,6.029,CST-1368DR,4640,5003,11484,01.229,551
2022-07-27T12:42:20,42.805,6.029,CST-1368DR,4640,4992,11459,01.238,551
2022-07-27T12:45:22,42.805,6.029,CST-1368DR,4640,4985,11443,01.244,551
2022-07-27T12:48:24,42.805,6.029,CST-1368DR,4640,4994,11463,01.237,551
2022-07-27T12:51:25,42.805,6.029,CST-1368DR,4640,4990,11455,01.239,551
2022-07-27T12:54:27,42.805,6.029,CST-1368DR,4640,4991,11458,01.238,551
2022-07-27T12:57:28,42.805,6.029,CST-1368DR,4640,4992,11460,01.238,551
2022-07-27T13:00:30,42.805,6.029,CST-1368DR,4640,4993,11462,01.237,551
2022-07-27T13:03:32,42.805,6.029,CST-1368DR,4640,4993,11462,01.237,551
2022-07-27T13:06:33,42.805,6.029,CST-1368DR,4640,4993,11462,01.237,551
2022-07-27T13:09:35,42.805,6.029,CST-1368DR,4640,4993,11461,01.237,551
2022-07-27T13:12:36,42.805,6.029,CST-1368DR,4640,4992,11459,01.238,551
2022-07-27T13:15:38,42.805,6.029,CST-1368DR,4640,4992,11460,01.238,551
2022-07-27T13:18:39,42.805,6.029,CST-1368DR,4640,4990,11455,01.239,551
2022-07-27T13:21:41,42.805,6.029,CST-1368DR,4640,4992,11459,01.238,551
2022-07-27T13:24:43,42.805,6.029,CST-1368DR,4640,4988,11451,01.241,551
2022-07-27T13:27:44,42.805,6.029,CST-1368DR,4640,4990,11455,01.239,551
2022-07-27T13:30:46,42.805,6.029,CST-1368DR,4640,4990,11455,01.239,551
2022-07-27T13:33:47,42.805,6.029,CST-1368DR,4640,4990,11454,01.240,551
2022-07-27T13:36:49,42.805,6.029,CST-1368DR,4640,4991,11456,01.239,551
2022-07-27T13:39:50,42.805,6.029,CST-1368DR,4640,4989,11452,01.241,551
2022-07-27T13:42:52,42.805,6.029,CST-1368DR,4640,4990,11454,01.240,551
2022-07-27T13:45:54,42.805,6.029,CST-1368DR,4640,4990,11455,01.239,551
2022-07-27T13:48:55,42.805,6.029,CST-1368DR,4640,4990,11455,01.239,551
2022-07-27T13:51:57,42.805,6.029,CST-1368DR,4640,4992,11458,01.238,551
2022-07-27T13:54:58,42.805,6.029,CST-1368DR,4640,4992,11459,01.238,551
2022-07-27T13:58:00,42.805,6.029,CST-1368DR,4640,4990,11454,01.240,551
2022-07-27T14:01:02,42.805,6.029,CST-1368DR,4640,4986,11445,01.243,551
2022-07-27T14:04:03,42.805,6.029,CST-1368DR,4640,4989,11451,01.241,551
2022-07-27T14:07:05,42.805,6.029,CST-1368DR,4640,4989,11453,01.240,551
2022-07-27T14:10:06,42.805,6.029,CST-1368DR,4640,4986,11446,01.243,551
2022-07-27T14:13:08,42.805,6.029,CST-1368DR,4640,4994,11463,01.237,551
2022-07-27T14:16:09,42.805,6.029,CST-1368DR,4640,4989,11452,01.241,551
2022-07-27T14:19:11,42.805,6.029,CST-1368DR,4640,4989,11452,01.241,551
2022-07-27T14:22:13,42.805,6.029,CST-1368DR,4640,4989,11452,01.241,551
2022-07-27T14:25:14,42.805,6.029,CST-1368DR,4640,4990,11454,01.240,551
2022-07-27T14:28:16,42.805,6.029,CST-1368DR,4640,4991,11456,01.239,551
2022-07-27T14:31:17,42.805,6.029,CST-1368DR,4640,4987,11448,01.242,551
2022-07-27T14:34:19,42.805,6.029,CST-1368DR,4640,4986,11444,01.243,551
2022-07-27T14:37:20,42.805,6.029,CST-1368DR,4640,4984,11440,01.245,551
2022-07-27T14:40:22,42.805,6.029,CST-1368DR,4640,4970,11409,01.256,551
2022-07-27T14:43:24,42.805,6.029,CST-1368DR,4640,4980,11431,01.248,551
2022-07-27T14:46:25,42.805,6.029,CST-1368DR,4640,4973,11415,01.253,551
2022-07-27T14:49:27,42.805,6.029,CST-1368DR,4639,4977,11428,01.249,551
2022-07-27T14:52:28,42.805,6.029,CST-1368DR,4639,4982,11438,01.245,551
2022-07-27T14:55:30,42.805,6.029,CST-1368DR,4639,4984,11443,01.244,551
2022-07-27T14:58:32,42.805,6.029,CST-1368DR,4639,4984,11443,01.244,550
2022-07-27T15:01:33,42.805,6.029,CST-1368DR,4639,4985,11446,01.243,551
2022-07-27T15:04:35,42.805,6.029,CST-1368DR,4639,4985,11446,01.243,551
2022-07-27T15:07:36,42.805,6.029,CST-1368DR,4639,4983,11442,01.244,551
2022-07-27T15:10:38,42.805,6.029,CST-1368DR,4639,4984,11443,01.244,551
2022-07-27T15:13:39,42.805,6.029,CST-1368DR,4639,4983,11442,01.244,551
2022-07-27T15:16:41,42.805,6.029,CST-1368DR,4639,4982,11439,01.245,551
2022-07-27T15:19:43,42.805,6.029,CST-1368DR,4639,4983,11441,01.244,551
2022-07-27T15:22:44,42.805,6.029,CST-1368DR,4638,4984,11445,01.243,550
2022-07-27T15:25:46,42.805,6.029,CST-1368DR,4638,4984,11445,01.243,551
2022-07-27T15:28:47,42.805,6.029,CST-1368DR,4639,4983,11440,01.245,551
2022-07-27T15:31:49,42.805,6.029,CST-1368DR,4639,4983,11440,01.245,550
2022-07-27T15:34:50,42.805,6.029,CST-1368DR,4639,4979,11432,01.248,551
2022-07-27T15:37:52,42.805,6.029,CST-1368DR,4639,4983,11442,01.244,551
2022-07-27T15:40:54,42.805,6.029,CST-1368DR,4639,4996,11471,01.234,551
2022-07-27T15:43:55,42.805,6.029,CST-1368DR,4639,4976,11424,01.250,550
2022-07-27T15:46:57,42.805,6.029,CST-1368DR,4639,4977,11427,01.249,551
2022-07-27T15:49:58,42.805,6.029,CST-1368DR,4639,4980,11434,01.247,551
2022-07-27T15:53:00,42.805,6.029,CST-1368DR,4638,4973,11419,01.252,551
2022-07-27T15:56:02,42.805,6.029,CST-1368DR,4638,4976,11427,01.249,551
2022-07-27T15:59:03,42.805,6.029,CST-1368DR,4638,4974,11423,01.251,551
2022-07-27T16:02:05,42.805,6.029,CST-1368DR,4639,4996,11471,01.234,551
2022-07-27T16:05:06,42.805,6.029,CST-1368DR,4639,4999,11477,01.232,551
2022-07-27T16:08:08,42.805,6.029,CST-1368DR,4639,4990,11456,01.239,551
2022-07-27T16:11:09,42.805,6.029,CST-1368DR,4639,4989,11454,01.240,551
2022-07-27T16:14:11,42.805,6.029,CST-1368DR,4639,4988,11453,01.240,551
2022-07-27T16:17:13,42.805,6.029,CST-1368DR,4639,4976,11424,01.250,551
2022-07-27T16:20:14,42.805,6.029,CST-1368DR,4638,4981,11439,01.245,551
2022-07-27T16:23:16,42.805,6.029,CST-1368DR,4638,4971,11416,01.253,551
2022-07-27T16:26:17,42.805,6.029,CST-1368DR,4638,4970,11414,01.254,551
2022-07-27T16:29:19,42.805,6.029,CST-1368DR,4638,4990,11458,01.238,551
2022-07-27T16:32:20,42.805,6.029,CST-1368DR,4638,4984,11445,01.243,551
2022-07-27T16:35:22,42.805,6.029,CST-1368DR,4638,4983,11443,01.244,551
2022-07-27T16:38:24,42.805,6.029,CST-1368DR,4638,4986,11450,01.241,551
2022-07-27T16:41:25,42.805,6.029,CST-1368DR,4638,4985,11447,01.242,551
2022-07-27T16:44:27,42.805,6.029,CST-1368DR,4638,4983,11444,01.243,551
2022-07-27T16:47:28,42.805,6.029,CST-1368DR,4638,4983,11442,01.244,551